Data No, UTC Date,UTC Time,Latitude,Longitude,Course(deg),Temp(degC),Sal(psu),pH
542,2019/4/11,9:01,42-36.99N,141-37.13E,209,4.077,32.1173,8.15
543,2019/4/11,9:02,42-36.77N,141-36.96E,208,3.856,32.1247,8.15
544,2019/4/11,9:03,42-36.52N,141-36.88E,184,4.379,32.1158,8.15
545,2019/4/11,9:04,42-36.26N,141-36.95E,163,4.605,32.1378,8.15
546,2019/4/11,9:05,42-36.02N,141-37.12E,148,4.268,32.0627,8.15
547,2019/4/11,9:06,42-35.78N,141-37.34E,144,4.009,32.1063,8.15
548,2019/4/11,9:07,42-35.54N,141-37.58E,143,4.047,32.2324,8.16
549,2019/4/11,9:08,42-35.30N,141-37.83E,143,3.97,32.2842,8.17
550,2019/4/11,9:09,42-35.06N,141-38.08E,143,3.924,32.3016,8.17
551,2019/4/11,9:10,42-34.81N,141-38.33E,143,3.969,32.3134,8.18
552,2019/4/11,9:11,42-34.55N,141-38.58E,144,3.833,32.3165,8.18
553,2019/4/11,9:12,42-34.29N,141-38.84E,144,3.719,32.3054,8.18
554,2019/4/11,9:13,42-34.03N,141-39.09E,144,3.672,32.304,8.19
555,2019/4/11,9:14,42-33.76N,141-39.34E,144,3.651,32.2979,8.19
556,2019/4/11,9:15,42-33.49N,141-39.60E,144,3.686,32.2939,8.19
557,2019/4/11,9:16,42-33.22N,141-39.86E,144,3.627,32.2974,8.2
558,2019/4/11,9:17,42-32.95N,141-40.13E,144,3.336,32.295,8.21
559,2019/4/11,9:18,42-32.68N,141-40.40E,144,3.185,32.2842,8.21
560,2019/4/11,9:19,42-32.40N,141-40.67E,144,3.222,32.2775,8.22
561,2019/4/11,9:20,42-32.13N,141-40.93E,144,3.509,32.2884,8.23
562,2019/4/11,9:21,42-31.85N,141-41.20E,144,3.596,32.3039,8.23
563,2019/4/11,9:22,42-31.56N,141-41.47E,144,3.805,32.312,8.23
564,2019/4/11,9:23,42-31.28N,141-41.76E,144,4.141,32.3193,8.23
565,2019/4/11,9:24,42-31.00N,141-42.03E,144,4.196,32.3247,8.23
566,2019/4/11,9:25,42-30.71N,141-42.31E,144,3.697,32.3194,8.23
567,2019/4/11,9:26,42-30.42N,141-42.59E,144,3.209,32.3061,8.23
568,2019/4/11,9:27,42-30.12N,141-42.88E,144,3.228,32.2723,8.23
569,2019/4/11,9:28,42-29.82N,141-43.16E,144,2.997,32.2599,8.24
570,2019/4/11,9:29,42-29.53N,141-43.44E,144,3.06,32.2387,8.25
571,2019/4/11,9:30,42-29.23N,141-43.73E,144,2.807,32.2427,8.25
572,2019/4/11,9:31,42-28.93N,141-44.01E,145,2.393,32.2195,8.26
573,2019/4/11,9:32,42-28.62N,141-44.30E,145,2.247,32.2159,8.27
574,2019/4/11,9:33,42-28.32N,141-44.59E,143,2.467,32.2129,8.27
575,2019/4/11,9:34,42-28.13N,141-44.97E,117,2.656,32.2256,8.26
576,2019/4/11,9:35,42-27.97N,141-45.41E,117,2.802,32.2262,8.27
577,2019/4/11,9:36,42-27.79N,141-45.85E,117,2.596,32.2631,8.26
578,2019/4/11,9:37,42-27.62N,141-46.29E,117,2.505,32.2583,8.24
579,2019/4/11,9:38,42-27.45N,141-46.72E,117,2.548,32.2402,8.24
580,2019/4/11,9:39,42-27.28N,141-47.17E,118,2.469,32.2336,8.24
581,2019/4/11,9:40,42-27.10N,141-47.60E,119,2.216,32.227,8.24
582,2019/4/11,9:41,42-26.92N,141-48.04E,119,2.433,32.2193,8.23
583,2019/4/11,9:42,42-26.74N,141-48.47E,119,2.197,32.2295,8.23
584,2019/4/11,9:43,42-26.56N,141-48.90E,119,2.021,32.2167,8.22
585,2019/4/11,9:44,42-26.38N,141-49.34E,119,2.167,32.2158,8.21
586,2019/4/11,9:45,42-26.19N,141-49.78E,119,2.127,32.2229,8.2
587,2019/4/11,9:46,42-26.01N,141-50.22E,119,2.103,32.2171,8.2
588,2019/4/11,9:47,42-25.83N,141-50.65E,119,2.1,32.2182,8.2
589,2019/4/11,9:48,42-25.64N,141-51.08E,120,2.054,32.2215,8.18
590,2019/4/11,9:49,42-25.46N,141-51.51E,119,2.004,32.2209,8.18
591,2019/4/11,9:50,42-25.27N,141-51.96E,119,2.183,32.222,8.18
592,2019/4/11,9:51,42-25.09N,141-52.38E,119,2.126,32.2273,8.18
593,2019/4/11,9:52,42-24.90N,141-52.82E,120,2.079,32.2193,8.18
594,2019/4/11,9:53,42-24.71N,141-53.26E,120,2.166,32.2191,8.18
595,2019/4/11,9:54,42-24.53N,141-53.69E,120,2.165,32.2186,8.18
596,2019/4/11,9:55,42-24.34N,141-54.11E,120,2.037,32.2163,8.18
597,2019/4/11,9:56,42-24.16N,141-54.55E,120,2.121,32.2103,8.18
598,2019/4/11,9:57,42-23.97N,141-54.98E,120,2.061,32.2202,8.19
599,2019/4/11,9:58,42-23.78N,141-55.41E,120,2.187,32.2119,8.19
600,2019/4/11,9:59,42-23.59N,141-55.84E,120,2.32,32.2256,8.19
601,2019/4/11,10:00,42-23.40N,141-56.27E,120,2.307,32.2436,8.2
602,2019/4/11,10:01,42-23.21N,141-56.71E,120,2.314,32.2475,8.2
603,2019/4/11,10:02,42-23.02N,141-57.14E,120,2.301,32.2544,8.2
604,2019/4/11,10:03,42-22.83N,141-57.56E,120,2.147,32.2575,8.21
605,2019/4/11,10:04,42-22.64N,141-58.00E,120,2.505,32.2532,8.21
606,2019/4/11,10:05,42-22.45N,141-58.43E,120,2.429,32.2635,8.21
607,2019/4/11,10:06,42-22.26N,141-58.87E,120,2.269,32.2527,8.21
608,2019/4/11,10:07,42-22.07N,141-59.31E,120,2.392,32.251,8.21
609,2019/4/11,10:08,42-21.88N,141-59.73E,120,2.286,32.2578,8.22
610,2019/4/11,10:09,42-21.69N,142-00.16E,121,2.294,32.2587,8.22
611,2019/4/11,10:10,42-21.50N,142-00.59E,120,2.563,32.2664,8.22
612,2019/4/11,10:11,42-21.31N,142-01.03E,120,2.382,32.271,8.22
613,2019/4/11,10:12,42-21.12N,142-01.45E,120,2.42,32.2594,8.21
614,2019/4/11,10:13,42-20.94N,142-01.88E,120,2.781,32.263,8.22
615,2019/4/11,10:14,42-20.75N,142-02.32E,120,2.499,32.2748,8.22
616,2019/4/11,10:15,42-20.56N,142-02.75E,120,2.623,32.2683,8.23
617,2019/4/11,10:16,42-20.37N,142-03.19E,120,2.209,32.2738,8.22
618,2019/4/11,10:17,42-20.19N,142-03.62E,120,2.246,32.2619,8.23
619,2019/4/11,10:18,42-20.00N,142-04.05E,120,2.43,32.282,8.23
620,2019/4/11,10:19,42-19.81N,142-04.49E,120,2.327,32.2868,8.22
621,2019/4/11,10:20,42-19.62N,142-04.93E,120,2.444,32.2877,8.22
622,2019/4/11,10:21,42-19.44N,142-05.37E,119,2.258,32.2911,8.22
623,2019/4/11,10:22,42-19.26N,142-05.80E,119,2.441,32.289,8.22
624,2019/4/11,10:23,42-19.07N,142-06.24E,119,2.163,32.2932,8.22
625,2019/4/11,10:24,42-18.88N,142-06.69E,119,2.136,32.2701,8.21
626,2019/4/11,10:25,42-18.70N,142-07.12E,119,1.972,32.2789,8.22
627,2019/4/11,10:26,42-18.51N,142-07.56E,119,2.458,32.2734,8.22
628,2019/4/11,10:27,42-18.33N,142-07.99E,119,2.407,32.2788,8.22
629,2019/4/11,10:28,42-18.14N,142-08.44E,119,2.187,32.2623,8.21
630,2019/4/11,10:29,42-17.94N,142-08.88E,123,2.117,32.2554,8.21
631,2019/4/11,10:30,42-17.73N,142-09.27E,125,1.863,32.2506,8.2
632,2019/4/11,10:31,42-17.51N,142-09.69E,126,1.809,32.2485,8.19
633,2019/4/11,10:32,42-17.29N,142-10.08E,127,1.689,32.2513,8.18
634,2019/4/11,10:33,42-17.06N,142-10.48E,126,1.8,32.2494,8.19
635,2019/4/11,10:34,42-16.85N,142-10.91E,123,2.061,32.2556,8.2
636,2019/4/11,10:35,42-16.65N,142-11.33E,123,2.08,32.2546,8.19
637,2019/4/11,10:36,42-16.45N,142-11.75E,123,2.13,32.2466,8.19
638,2019/4/11,10:37,42-16.24N,142-12.17E,122,1.981,32.2436,8.18
639,2019/4/11,10:38,42-16.04N,142-12.60E,122,1.977,32.2388,8.18
640,2019/4/11,10:39,42-15.83N,142-13.03E,123,2.083,32.2443,8.18
641,2019/4/11,10:40,42-15.63N,142-13.44E,122,2.228,32.249,8.18
642,2019/4/11,10:41,42-15.43N,142-13.87E,122,2.146,32.251,8.18
643,2019/4/11,10:42,42-15.23N,142-14.29E,123,1.808,32.2469,8.18
644,2019/4/11,10:43,42-15.02N,142-14.72E,123,1.749,32.2338,8.18
645,2019/4/11,10:44,42-14.82N,142-15.14E,122,1.752,32.2378,8.18
646,2019/4/11,10:45,42-14.61N,142-15.56E,122,1.865,32.2346,8.18
647,2019/4/11,10:46,42-14.42N,142-15.99E,121,1.748,32.2332,8.18
648,2019/4/11,10:47,42-14.22N,142-16.43E,120,1.79,32.2262,8.18
649,2019/4/11,10:48,42-14.04N,142-16.86E,119,1.743,32.2293,8.19
650,2019/4/11,10:49,42-13.84N,142-17.34E,119,1.683,32.2269,8.18
651,2019/4/11,10:50,42-13.67N,142-17.74E,120,1.594,32.2297,8.19
652,2019/4/11,10:51,42-13.48N,142-18.19E,119,1.377,32.2228,8.2
653,2019/4/11,10:52,42-13.29N,142-18.63E,119,1.37,32.2132,8.2
654,2019/4/11,10:53,42-13.11N,142-19.06E,120,1.35,32.207,8.2
655,2019/4/11,10:54,42-12.92N,142-19.49E,120,1.401,32.1874,8.2
656,2019/4/11,10:55,42-12.72N,142-19.94E,120,1.608,32.1792,8.21
657,2019/4/11,10:56,42-12.54N,142-20.37E,119,1.76,32.1721,8.21
658,2019/4/11,10:57,42-12.35N,142-20.80E,119,1.971,32.1691,8.21
659,2019/4/11,10:58,42-12.17N,142-21.24E,120,2.079,32.1659,8.21
660,2019/4/11,10:59,42-11.98N,142-21.68E,120,2.165,32.163,8.21
661,2019/4/11,11:00,42-11.79N,142-22.12E,120,1.91,32.169,8.21
662,2019/4/11,11:01,42-11.61N,142-22.55E,119,2.019,32.1643,8.21
663,2019/4/11,11:02,42-11.44N,142-22.99E,117,1.964,32.1737,8.21
664,2019/4/11,11:03,42-11.27N,142-23.45E,115,1.907,32.1665,8.21
665,2019/4/11,11:04,42-11.11N,142-23.89E,116,1.835,32.1674,8.21
666,2019/4/11,11:05,42-10.93N,142-24.35E,118,1.974,32.169,8.22
667,2019/4/11,11:06,42-10.76N,142-24.77E,119,2.056,32.1744,8.22
668,2019/4/11,11:07,42-10.57N,142-25.21E,119,2.079,32.1742,8.22
669,2019/4/11,11:08,42-10.39N,142-25.65E,119,2.377,32.1694,8.22
670,2019/4/11,11:09,42-10.21N,142-26.09E,119,2.306,32.1743,8.22
671,2019/4/11,11:10,42-10.02N,142-26.53E,119,2.127,32.1716,8.22
672,2019/4/11,11:11,42-09.83N,142-26.97E,119,2.014,32.191,8.23
673,2019/4/11,11:12,42-09.65N,142-27.41E,119,2.305,32.2066,8.23
674,2019/4/11,11:13,42-09.46N,142-27.87E,118,2.345,32.2208,8.22
675,2019/4/11,11:14,42-09.29N,142-28.29E,118,2.344,32.2167,8.23
676,2019/4/11,11:15,42-09.10N,142-28.75E,119,2.426,32.2285,8.23
677,2019/4/11,11:16,42-08.92N,142-29.19E,118,1.824,32.2476,8.23
678,2019/4/11,11:17,42-08.75N,142-29.62E,118,1.707,32.2472,8.23
679,2019/4/11,11:18,42-08.57N,142-30.07E,119,1.808,32.2621,8.23
680,2019/4/11,11:19,42-08.37N,142-30.50E,122,1.714,32.2667,8.23
681,2019/4/11,11:20,42-08.17N,142-30.91E,124,1.307,32.2603,8.24
682,2019/4/11,11:21,42-07.95N,142-31.33E,124,1.546,32.2358,8.24
683,2019/4/11,11:22,42-07.75N,142-31.75E,124,1.926,32.2338,8.25
684,2019/4/11,11:23,42-07.53N,142-32.17E,123,2.107,32.2171,8.25
685,2019/4/11,11:24,42-07.33N,142-32.57E,124,2.138,32.2082,8.25
686,2019/4/11,11:25,42-07.12N,142-33.00E,124,1.809,32.2014,8.25
687,2019/4/11,11:26,42-06.91N,142-33.41E,124,2.048,32.1681,8.25
688,2019/4/11,11:27,42-06.70N,142-33.83E,124,2.297,32.1612,8.26
689,2019/4/11,11:28,42-06.50N,142-34.23E,124,2.453,32.1502,8.26
690,2019/4/11,11:29,42-06.28N,142-34.64E,124,2.511,32.1441,8.26
691,2019/4/11,11:30,42-06.07N,142-35.06E,124,2.439,32.1393,8.26
692,2019/4/11,11:31,42-05.86N,142-35.47E,124,2.222,32.1325,8.26
693,2019/4/11,11:32,42-05.65N,142-35.88E,124,2.142,32.1285,8.26
694,2019/4/11,11:33,42-05.45N,142-36.29E,124,2.174,32.1292,8.26
695,2019/4/11,11:34,42-05.24N,142-36.70E,124,2.297,32.1301,8.27
696,2019/4/11,11:35,42-05.02N,142-37.13E,124,2.402,32.1307,8.27
697,2019/4/11,11:36,42-04.82N,142-37.53E,123,2.371,32.1324,8.27
698,2019/4/11,11:37,42-04.62N,142-37.95E,122,2.344,32.1297,8.28
699,2019/4/11,11:38,42-04.44N,142-38.37E,114,2.393,32.1292,8.27
700,2019/4/11,11:39,42-04.36N,142-38.85E,100,2.481,32.1295,8.27
701,2019/4/11,11:40,42-04.31N,142-39.34E,97,2.728,32.129,8.27
702,2019/4/11,11:41,42-04.25N,142-39.81E,100,2.638,32.1296,8.27
703,2019/4/11,11:42,42-04.16N,142-40.30E,105,2.622,32.1211,8.28
704,2019/4/11,11:43,42-04.06N,142-40.78E,106,2.353,32.1271,8.27
705,2019/4/11,11:44,42-03.90N,142-41.22E,121,2.43,32.1277,8.28
706,2019/4/11,11:45,42-03.62N,142-41.55E,147,2.52,32.1366,8.28
707,2019/4/11,11:46,42-03.29N,142-41.73E,160,2.476,32.1351,8.27
708,2019/4/11,11:47,42-02.95N,142-41.90E,159,2.194,32.1319,8.27
709,2019/4/11,11:48,42-02.61N,142-42.08E,156,2.093,32.1269,8.27
710,2019/4/11,11:49,42-02.28N,142-42.30E,152,2.099,32.1308,8.27
711,2019/4/11,11:50,42-02.03N,142-42.63E,122,2.289,32.1311,8.27
712,2019/4/11,11:51,42-01.92N,142-43.07E,107,2.102,32.1292,8.27
713,2019/4/11,11:52,42-01.76N,142-43.51E,119,2.302,32.1202,8.27
714,2019/4/11,11:53,42-01.59N,142-43.94E,118,2.03,32.1302,8.27
715,2019/4/11,11:54,42-01.41N,142-44.37E,117,1.885,32.1232,8.27
716,2019/4/11,11:55,42-01.24N,142-44.81E,118,1.863,32.1258,8.28
717,2019/4/11,11:56,42-01.06N,142-45.25E,118,1.864,32.1292,8.27
718,2019/4/11,11:57,42-00.88N,142-45.69E,119,1.784,32.1319,8.28
719,2019/4/11,11:58,42-00.69N,142-46.13E,119,1.758,32.1308,8.28
720,2019/4/11,11:59,42-00.50N,142-46.57E,120,1.866,32.1388,8.27
721,2019/4/11,12:00,42-00.32N,142-47.00E,120,1.967,32.1454,8.28
722,2019/4/11,12:01,42-00.13N,142-47.44E,120,1.687,32.1476,8.27
723,2019/4/11,12:02,41-59.94N,142-47.86E,120,1.526,32.1403,8.27
724,2019/4/11,12:03,41-59.75N,142-48.30E,120,1.554,32.1509,8.27
725,2019/4/11,12:04,41-59.56N,142-48.74E,120,1.761,32.1571,8.27
726,2019/4/11,12:05,41-59.37N,142-49.18E,119,1.869,32.156,8.27
727,2019/4/11,12:06,41-59.18N,142-49.63E,120,1.538,32.15,8.26
728,2019/4/11,12:07,41-58.99N,142-50.06E,120,1.465,32.1487,8.26
729,2019/4/11,12:08,41-58.80N,142-50.50E,119,1.427,32.1676,8.26
730,2019/4/11,12:09,41-58.61N,142-50.94E,120,1.354,32.1734,8.27
731,2019/4/11,12:10,41-58.42N,142-51.38E,120,1.409,32.1766,8.27
732,2019/4/11,12:11,41-58.24N,142-51.82E,120,1.476,32.1776,8.26
733,2019/4/11,12:12,41-58.04N,142-52.25E,121,1.563,32.1735,8.26
734,2019/4/11,12:13,41-57.83N,142-52.68E,122,1.601,32.166,8.26
735,2019/4/11,12:14,41-57.62N,142-53.12E,123,1.664,32.1585,8.26
736,2019/4/11,12:15,41-57.42N,142-53.53E,123,1.759,32.1524,8.26
737,2019/4/11,12:16,41-57.21N,142-53.95E,123,1.976,32.1514,8.26
738,2019/4/11,12:17,41-57.01N,142-54.38E,123,2.142,32.1562,8.26
739,2019/4/11,12:18,41-56.79N,142-54.81E,123,2.048,32.1675,8.27
740,2019/4/11,12:19,41-56.59N,142-55.23E,123,1.966,32.1543,8.27
741,2019/4/11,12:20,41-56.38N,142-55.65E,123,1.945,32.1298,8.28
742,2019/4/11,12:21,41-56.17N,142-56.08E,122,2.003,32.117,8.27
743,2019/4/11,12:22,41-55.96N,142-56.52E,122,2.515,32.1145,8.28
744,2019/4/11,12:23,41-55.76N,142-56.95E,121,2.699,32.1264,8.28
745,2019/4/11,12:24,41-55.59N,142-57.39E,116,2.53,32.1122,8.28
746,2019/4/11,12:25,41-55.43N,142-57.87E,112,2.269,32.0902,8.28
747,2019/4/11,12:26,41-55.30N,142-58.32E,110,2.205,32.0701,8.29
748,2019/4/11,12:27,41-55.17N,142-58.80E,109,2.384,32.0751,8.29
749,2019/4/11,12:28,41-55.04N,142-59.28E,109,2.424,32.0805,8.29
750,2019/4/11,12:29,41-54.91N,142-59.77E,109,2.379,32.0649,8.29
751,2019/4/11,12:30,41-54.78N,143-00.23E,111,2.428,32.0565,8.29
752,2019/4/11,12:31,41-54.63N,143-00.71E,113,2.374,32.0511,8.29
753,2019/4/11,12:32,41-54.48N,143-01.18E,113,2.249,32.0376,8.29
754,2019/4/11,12:33,41-54.32N,143-01.64E,115,2.121,32.0327,8.29
755,2019/4/11,12:34,41-54.15N,143-02.10E,116,2.104,32.0372,8.3
756,2019/4/11,12:35,41-53.98N,143-02.55E,117,2.087,32.0437,8.3
757,2019/4/11,12:36,41-53.80N,143-03.01E,117,1.961,32.0414,8.3
758,2019/4/11,12:37,41-53.63N,143-03.45E,117,1.852,32.0439,8.29
759,2019/4/11,12:38,41-53.46N,143-03.91E,117,2.125,32.0409,8.29
760,2019/4/11,12:39,41-53.30N,143-04.38E,113,2.157,32.0408,8.3
761,2019/4/11,12:40,41-53.15N,143-04.85E,111,1.837,32.0248,8.28
762,2019/4/11,12:41,41-53.03N,143-05.33E,107,2.098,32.0205,8.28
763,2019/4/11,12:42,41-52.93N,143-05.80E,106,2.047,32.0416,8.28
764,2019/4/11,12:43,41-52.82N,143-06.29E,106,1.924,32.0411,8.28
765,2019/4/11,12:44,41-52.72N,143-06.78E,106,1.859,32.0358,8.28
766,2019/4/11,12:45,41-52.61N,143-07.29E,106,1.812,32.0233,8.28
767,2019/4/11,12:46,41-52.50N,143-07.78E,106,1.659,32.0036,8.27
768,2019/4/11,12:47,41-52.40N,143-08.25E,106,1.565,31.9968,8.27
769,2019/4/11,12:48,41-52.29N,143-08.74E,106,1.607,32.0102,8.28
770,2019/4/11,12:49,41-52.19N,143-09.23E,102,1.195,32.0069,8.27
771,2019/4/11,12:50,41-52.14N,143-09.74E,96,1.14,32.0144,8.26
772,2019/4/11,12:51,41-52.11N,143-10.23E,92,1.184,32.0607,8.26
773,2019/4/11,12:52,41-52.10N,143-10.73E,90,1.34,32.0645,8.25
774,2019/4/11,12:53,41-52.10N,143-11.24E,90,1.378,32.0477,8.23
775,2019/4/11,12:54,41-52.09N,143-11.74E,90,1.49,32.0316,8.23
776,2019/4/11,12:55,41-52.09N,143-12.24E,90,1.555,32.0401,8.21
777,2019/4/11,12:56,41-52.09N,143-12.76E,90,1.553,32.0407,8.21
778,2019/4/11,12:57,41-52.08N,143-13.26E,90,1.588,32.0295,8.21
779,2019/4/11,12:58,41-52.08N,143-13.77E,90,1.706,32.0239,8.21
780,2019/4/11,12:59,41-52.07N,143-14.28E,91,1.723,32.017,8.21
781,2019/4/11,13:00,41-52.06N,143-14.78E,91,1.828,32.0079,8.21
782,2019/4/11,13:01,41-52.06N,143-15.29E,91,1.866,32.0065,8.21
783,2019/4/11,13:02,41-52.05N,143-15.80E,91,1.702,31.9841,8.21
784,2019/4/11,13:03,41-52.04N,143-16.30E,91,1.629,32.0001,8.21
785,2019/4/11,13:04,41-52.05N,143-16.81E,85,1.954,32.042,8.22
786,2019/4/11,13:05,41-52.10N,143-17.31E,82,1.912,32.1143,8.22
787,2019/4/11,13:06,41-52.16N,143-17.81E,79,1.821,32.1297,8.22
788,2019/4/11,13:07,41-52.24N,143-18.31E,76,1.689,32.1263,8.23
789,2019/4/11,13:08,41-52.33N,143-18.81E,76,1.618,32.1202,8.23
790,2019/4/11,13:09,41-52.43N,143-19.29E,75,1.468,32.1195,8.23
791,2019/4/11,13:10,41-52.52N,143-19.80E,76,1.486,32.114,8.24
792,2019/4/11,13:11,41-52.61N,143-20.30E,76,1.619,32.1224,8.24
793,2019/4/11,13:12,41-52.71N,143-20.78E,75,1.663,32.1234,8.24
794,2019/4/11,13:13,41-52.80N,143-21.28E,75,1.564,32.1221,8.24
795,2019/4/11,13:14,41-52.90N,143-21.78E,75,1.619,32.1265,8.25
796,2019/4/11,13:15,41-52.99N,143-22.28E,75,1.675,32.1366,8.26
797,2019/4/11,13:16,41-53.09N,143-22.78E,76,1.587,32.1456,8.25
798,2019/4/11,13:17,41-53.18N,143-23.26E,75,1.737,32.144,8.26
799,2019/4/11,13:18,41-53.27N,143-23.76E,76,1.719,32.1589,8.26
800,2019/4/11,13:19,41-53.36N,143-24.25E,76,1.652,32.1674,8.27
801,2019/4/11,13:20,41-53.45N,143-24.75E,75,1.666,32.1691,8.27
802,2019/4/11,13:21,41-53.55N,143-25.25E,75,1.768,32.1734,8.26
803,2019/4/11,13:22,41-53.64N,143-25.73E,75,1.956,32.1766,8.27
804,2019/4/11,13:23,41-53.73N,143-26.24E,74,1.778,32.1813,8.27
805,2019/4/11,13:24,41-53.89N,143-26.75E,66,1.82,32.1688,8.27
806,2019/4/11,13:25,41-54.07N,143-27.20E,58,2.061,32.174,8.27
807,2019/4/11,13:26,41-54.38N,143-27.43E,21,1.967,32.1734,8.28
808,2019/4/11,13:27,41-54.72N,143-27.51E,10,1.865,32.1637,8.28
809,2019/4/11,13:28,41-55.08N,143-27.58E,7,1.732,32.1743,8.28
810,2019/4/11,13:29,41-55.40N,143-27.63E,7,1.757,32.1774,8.29
811,2019/4/11,13:30,41-55.77N,143-27.70E,7,1.817,32.1791,8.3
812,2019/4/11,13:31,41-56.14N,143-27.77E,8,1.795,32.1775,8.3
813,2019/4/11,13:32,41-56.54N,143-27.85E,7,1.805,32.1758,8.3
814,2019/4/11,13:33,41-56.90N,143-27.97E,15,1.825,32.1774,8.3
815,2019/4/11,13:34,41-57.21N,143-28.11E,19,1.83,32.1769,8.3
816,2019/4/11,13:35,41-57.53N,143-28.27E,20,1.817,32.1773,8.3
817,2019/4/11,13:36,41-57.85N,143-28.43E,20,1.752,32.1793,8.3
818,2019/4/11,13:37,41-58.17N,143-28.62E,24,1.73,32.1798,8.3
819,2019/4/11,13:38,41-58.49N,143-28.82E,25,1.705,32.1792,8.3
820,2019/4/11,13:39,41-58.81N,143-29.03E,25,1.74,32.1796,8.3
821,2019/4/11,13:40,41-59.12N,143-29.23E,25,1.828,32.176,8.3
822,2019/4/11,13:41,41-59.44N,143-29.44E,25,1.605,32.1759,8.3
823,2019/4/11,13:42,41-59.75N,143-29.63E,25,1.569,32.173,8.3
824,2019/4/11,13:43,42-00.07N,143-29.85E,28,1.733,32.1827,8.3
825,2019/4/11,13:44,42-00.36N,143-30.08E,30,1.783,32.1947,8.3
826,2019/4/11,13:45,42-00.66N,143-30.32E,30,1.822,32.2026,8.3
827,2019/4/11,13:46,42-00.97N,143-30.56E,30,1.739,32.2102,8.29
828,2019/4/11,13:47,42-01.26N,143-30.80E,30,1.701,32.2146,8.29
829,2019/4/11,13:48,42-01.58N,143-31.04E,30,1.81,32.2136,8.27
830,2019/4/11,13:49,42-01.86N,143-31.27E,30,1.826,32.2167,8.28
831,2019/4/11,13:50,42-02.15N,143-31.50E,30,1.873,32.2186,8.28
832,2019/4/11,13:51,42-02.45N,143-31.73E,30,1.972,32.2244,8.28
833,2019/4/11,13:52,42-02.78N,143-31.99E,30,1.903,32.2169,8.28
834,2019/4/11,13:53,42-03.05N,143-32.20E,30,1.825,32.2032,8.28
835,2019/4/11,13:54,42-03.36N,143-32.44E,30,1.776,32.1874,8.29
836,2019/4/11,13:55,42-03.65N,143-32.67E,30,1.794,32.1828,8.28
837,2019/4/11,13:56,42-03.95N,143-32.90E,30,1.64,32.1851,8.29
838,2019/4/11,13:57,42-04.25N,143-33.14E,30,1.49,32.204,8.28
839,2019/4/11,13:58,42-04.58N,143-33.40E,30,1.485,32.2362,8.29
840,2019/4/11,13:59,42-04.84N,143-33.61E,30,1.46,32.2575,8.3
841,2019/4/11,14:00,42-05.16N,143-33.85E,30,1.487,32.2737,8.29
842,2019/4/11,14:01,42-05.46N,143-34.08E,30,1.485,32.3095,8.29
843,2019/4/11,14:02,42-05.74N,143-34.31E,30,1.588,32.3311,8.28
844,2019/4/11,14:03,42-06.04N,143-34.54E,30,1.657,32.3493,8.29
845,2019/4/11,14:04,42-06.35N,143-34.78E,30,1.685,32.3566,8.28
846,2019/4/11,14:05,42-06.65N,143-35.01E,29,1.692,32.3596,8.27
847,2019/4/11,14:06,42-06.94N,143-35.24E,30,1.735,32.3607,8.27
848,2019/4/11,14:07,42-07.24N,143-35.47E,29,1.722,32.3644,8.27
849,2019/4/11,14:08,42-07.54N,143-35.70E,28,1.679,32.3668,8.27
850,2019/4/11,14:09,42-07.85N,143-35.93E,29,1.557,32.3771,8.27
851,2019/4/11,14:10,42-08.15N,143-36.15E,29,1.638,32.3873,8.26
852,2019/4/11,14:11,42-08.46N,143-36.38E,29,1.699,32.394,8.26
853,2019/4/11,14:12,42-08.76N,143-36.60E,29,1.753,32.3945,8.26
854,2019/4/11,14:13,42-09.06N,143-36.83E,28,1.711,32.4006,8.26
855,2019/4/11,14:14,42-09.37N,143-37.06E,29,1.608,32.4075,8.24
856,2019/4/11,14:15,42-09.67N,143-37.28E,28,1.504,32.4166,8.24
857,2019/4/11,14:16,42-09.97N,143-37.50E,29,1.659,32.4191,8.25
858,2019/4/11,14:17,42-10.27N,143-37.73E,29,1.576,32.4214,8.25
859,2019/4/11,14:18,42-10.58N,143-37.96E,28,1.553,32.4088,8.24
860,2019/4/11,14:19,42-10.88N,143-38.18E,29,1.659,32.3959,8.24
861,2019/4/11,14:20,42-11.18N,143-38.41E,29,1.661,32.3922,8.24
862,2019/4/11,14:21,42-11.48N,143-38.63E,29,1.626,32.3749,8.24
863,2019/4/11,14:22,42-11.77N,143-38.85E,29,1.583,32.3647,8.24
864,2019/4/11,14:23,42-12.08N,143-39.08E,28,1.447,32.366,8.24
865,2019/4/11,14:24,42-12.38N,143-39.30E,28,1.412,32.3595,8.24
866,2019/4/11,14:25,42-12.68N,143-39.52E,28,1.399,32.3486,8.24
867,2019/4/11,14:26,42-12.98N,143-39.74E,29,1.484,32.3328,8.24
868,2019/4/11,14:27,42-13.28N,143-39.97E,29,1.629,32.323,8.24
869,2019/4/11,14:28,42-13.60N,143-40.20E,28,1.736,32.3182,8.24
870,2019/4/11,14:29,42-13.89N,143-40.42E,29,1.858,32.3124,8.24
871,2019/4/11,14:30,42-14.19N,143-40.65E,29,1.998,32.3103,8.24
872,2019/4/11,14:31,42-14.48N,143-40.87E,28,2.022,32.308,8.26
873,2019/4/11,14:32,42-14.79N,143-41.09E,29,2.055,32.3005,8.26
874,2019/4/11,14:33,42-15.09N,143-41.32E,29,1.885,32.2986,8.26
875,2019/4/11,14:34,42-15.39N,143-41.55E,29,1.795,32.2907,8.27
876,2019/4/11,14:35,42-15.70N,143-41.78E,29,1.777,32.2829,8.27
877,2019/4/11,14:36,42-16.00N,143-42.01E,29,1.828,32.275,8.27
878,2019/4/11,14:37,42-16.31N,143-42.25E,29,1.801,32.2782,8.27
879,2019/4/11,14:38,42-16.61N,143-42.47E,29,1.781,32.2882,8.27
880,2019/4/11,14:39,42-16.91N,143-42.70E,29,1.727,32.2925,8.27
881,2019/4/11,14:40,42-17.22N,143-42.93E,29,1.826,32.2968,8.28
882,2019/4/11,14:41,42-17.53N,143-43.17E,29,1.751,32.3016,8.27
883,2019/4/11,14:42,42-17.81N,143-43.39E,29,1.7,32.2958,8.27
884,2019/4/11,14:43,42-18.12N,143-43.62E,29,1.64,32.2998,8.27
885,2019/4/11,14:44,42-18.42N,143-43.85E,29,1.389,32.3122,8.28
886,2019/4/11,14:45,42-18.71N,143-44.07E,29,1.485,32.3186,8.28
887,2019/4/11,14:46,42-19.01N,143-44.30E,29,1.525,32.342,8.27
888,2019/4/11,14:47,42-19.31N,143-44.53E,29,1.602,32.349,8.28
889,2019/4/11,14:48,42-19.61N,143-44.76E,30,1.611,32.3533,8.27
890,2019/4/11,14:49,42-19.90N,143-44.99E,29,1.635,32.353,8.27
891,2019/4/11,14:50,42-20.21N,143-45.23E,30,1.637,32.3678,8.25
892,2019/4/11,14:51,42-20.50N,143-45.46E,30,1.702,32.3721,8.24
893,2019/4/11,14:52,42-20.79N,143-45.69E,29,1.764,32.3751,8.24
894,2019/4/11,14:53,42-21.09N,143-45.91E,29,1.777,32.3774,8.24
895,2019/4/11,14:54,42-21.38N,143-46.15E,31,1.731,32.3784,8.24
896,2019/4/11,14:55,42-21.68N,143-46.40E,32,1.725,32.3777,8.23
897,2019/4/11,14:56,42-21.97N,143-46.66E,33,1.74,32.3774,8.23
898,2019/4/11,14:57,42-22.25N,143-46.90E,33,1.76,32.3745,8.23
899,2019/4/11,14:58,42-22.54N,143-47.16E,33,1.752,32.3692,8.23
900,2019/4/11,14:59,42-22.83N,143-47.42E,33,1.466,32.3539,8.23
901,2019/4/11,15:00,42-23.12N,143-47.68E,34,1.509,32.3382,8.24
902,2019/4/11,15:01,42-23.40N,143-47.94E,34,1.668,32.3438,8.24
903,2019/4/11,15:02,42-23.68N,143-48.21E,35,1.823,32.3368,8.23
904,2019/4/11,15:03,42-23.97N,143-48.49E,35,1.688,32.3193,8.23
905,2019/4/11,15:04,42-24.25N,143-48.75E,35,1.76,32.3016,8.23
906,2019/4/11,15:05,42-24.54N,143-49.03E,35,1.452,32.302,8.24
907,2019/4/11,15:06,42-24.81N,143-49.29E,35,1.279,32.2865,8.24
908,2019/4/11,15:07,42-25.10N,143-49.56E,35,1.485,32.2925,8.25
909,2019/4/11,15:08,42-25.39N,143-49.84E,34,1.322,32.2955,8.26
910,2019/4/11,15:09,42-25.68N,143-50.12E,35,1.356,32.2866,8.26
911,2019/4/11,15:10,42-25.95N,143-50.37E,34,1.452,32.2957,8.25
912,2019/4/11,15:11,42-26.23N,143-50.63E,35,1.432,32.3033,8.26
913,2019/4/11,15:12,42-26.52N,143-50.91E,34,1.566,32.3386,8.26